Regional Weather Roundup
Issued by NWS Charleston, SC

Home | Current Version | Previous Version | Text Only | Print | Product List | Glossary On
Versions: 1 2 3 4 5 6 7 8 9 10 11 12 13 14 15 16 17 18 19 20 21 22 23 24 25 26 27 28 29 30 31 32 33 34 35 36 37 38 39 40 41 42 43 44 45 46 47 48 49 50
000
ASUS42 KCHS 031427
RWRCHS

REGIONAL WEATHER ROUNDUP
NATIONAL WEATHER SERVICE CHARLESTON SC
900 AM EST SAT DEC 03 2016

NOTE: "FAIR" INDICATES FEW OR NO CLOUDS BELOW 12,000 FEET WITH NO
SIGNIFICANT WEATHER AND/OR OBSTRUCTIONS TO VISIBILITY.

NOT ALL STATIONS ARE QUALITY CONTROLLED. USE DATA WITH CAUTION...
ESPECIALLY DEWPOINT OBSERVATIONS.

SCZ027-030-031-034>040-042>050-031500-
...SOUTHEAST SOUTH CAROLINA...

CITY           SKY/WX    TMP DP  RH WIND       PRES   REMARKS
N CHARLESTON   MOSUNNY   48  35  60 NE12      30.28R
WATERFRONT PRK   N/A     49  40  70 NE12      30.26R
MOUNT PLEASANT FAIR      46  36  66 N6        30.29R
JOHNS ISLAND   FAIR      50  37  62 NE9       30.29R
PINOPOLIS        N/A     46  37  71 E13       30.20R
MONCKS CORNER  FAIR      46  32  57 E10       30.30R
SUMMERVILLE    FAIR      46  41  81 NE3       30.31R
BEAUFORT MCAS  CLOUDY    51  41  68 N10       30.27R
BEAUFORT ARPT  FAIR      52  39  62 NE12      30.27S
HILTON HEAD IS PTSUNNY   52  41  66 N8        30.27R
WALTERBORO     MOSUNNY   50  36  57 NE10      30.29S
ALLENDALE      FAIR      48  36  61 VRB5      30.28S

...SOUTHERN MIDLANDS AND PEE DEE...

CITY           SKY/WX    TMP DP  RH WIND       PRES   REMARKS
GEORGETOWN     FAIR      45  36  70 NE6       30.30
KINGSTREE      FAIR      41  34  75 CALM      30.31R
ORANGEBURG     PTSUNNY   43  34  70 NE3       30.30R
BARNWELL       NOT AVBL
AIKEN          FAIR      45  34  65 NE8       30.31R
MANNING        NOT AVBL
COLUMBIA       PTSUNNY   42  37  82 CALM      30.30R
SUMTER         MOSUNNY   44  33  65 NE9       30.27S
FLORENCE       MOSUNNY   44  34  67 E6        30.30R
MYRTLE BEACH   MOSUNNY   45  34  65 NE9       30.31R
N MYRTLE BEACH MOSUNNY   43  35  73 NE7       30.28R

$$

GAZ063-065-086>088-099>101-113>116-118-119-134>141-150-031500-
...SOUTHEAST GEORGIA...

CITY           SKY/WX    TMP DP  RH WIND       PRES   REMARKS
SAVANNAH ARPT  CLOUDY    48  38  68 NE3       30.27R
HUNTER AAF     CLOUDY    50  40  68 NE3       30.23R
FORT STEWART   CLOUDY    49  37  62 CALM      30.23R
STATESBORO     MOSUNNY   52  40  62 NE5       30.26F
SYLVANIA       PTSUNNY  N/A N/A N/A E5        30.28R
CLAXTON        FAIR      51  40  66 N6        30.26S

...CSRA...CENTRAL AND FAR SOUTHEAST GEORGIA...

CITY           SKY/WX    TMP DP  RH WIND       PRES   REMARKS
THOMSON        MOSUNNY   44  41  87 CALM      30.33R
AUGUSTA-BUSH   MOSUNNY   43  38  82 CALM      30.28S
AUGUSTA-DANIEL CLOUDY    48  32  53 N6        30.28S
SWAINSBORO     FAIR      52  34  50 N6        30.26F
VIDALIA        PTSUNNY   54  41  62 NE7       30.25S
EASTMAN        FAIR      55  24  30 NE6       30.29R
HAZLEHURST     FAIR      51  39  64 N3        30.25S
ALMA           CLOUDY    51  37  58 CALM      30.25R
WAYCROSS       CLOUDY    54  41  60 NE7       30.25S
JESUP          FAIR      52  41  66 NE3       30.26R
BAXLEY         FAIR      54  41  62 NE6       30.25R
BRUNSWICK      CLOUDY    52  43  71 N3        30.26R
SAINT SIMONS   CLOUDY    52  39  61 N7        30.24R

$$

SCZ027-028-034-036>038-045-046-048>050-GAZ119-141-031500-
...LAKE AND SUPPLEMENTAL COASTAL OBSERVATIONS...

STATION/POSITION TIME  TEMP    WIND        PRES    WAVE   SWELL
                       AIR SEA DIR/SP/G            HT/PER HT/PER/DIR
                 (UTC) (F)     (DEG/KT/KT) (MB)    (FT/S) (FT/S/D)
WINYAH BAY       1330   47      20/  7     1025.0R
LAKE MURRAY      1330   47      40/  2/  4 1025.1R
ACE BASIN NERRS  1345   47     360/  2     1025.0R
FORT PULASKI     1400   53 62   20/  5/  6 1024.7
SAPELO ISLAND    1400   54      10/  9     1024.0

$$

ANZ835-935-AMZ111-154-330-350-352-354-370-450-454-472-031500-
...C-MAN AND BUOY OBSERVATIONS...

STATION/POSITION TIME  TEMP    WIND        PRES    WAVE   SWELL
                       AIR SEA DIR/SP/G            HT/PER HT/PER/DIR
                 (UTC) (F)     (DEG/KT/KT) (MB)    (FT/S) (FT/S/D)
BUOY 41004       1350   60 75   20/ 17/ 21 1023.0R   4/ 5   2/110/ 8
BUOY 41008       1350   59 64   20/ 10/ 12 1023.6F   2/ 8   2/120/ 8
FOLLY BEACH CMAN 1400   51      30/ 18/ 21 1025.5R
CAPERS NEARSHORE 1308   52 62   30/ 17/ 23 1024.0R
FRIPP NEARSHORE  1408   56 62   40/ 16/ 19 1024.6R


STATION/POSITION TIME  TEMP    WIND        PRES    WAVE   SWELL
                       AIR SEA DIR/SP/G            HT/PER HT/PER/DIR
                 (UTC) (F)     (DEG/KT/KT) (MB)    (FT/S) (FT/S/D)
5E ST. MARYS GA  1400      66                N/A     3/ 5
FRYING PAN BUOY  1350   53 74   10/ 19/ 25 1024.3R   5/ 6   2/160/ 9
BUOY 41025       1350      74  360/ 23/ 29 1022.0R   6/ 6
CAPE LOOKOUT NC  1400   45     340/ 12/ 14 1023.6R
BUOY 41002       1350   65 74  340/ 16/ 19 1021.2R   5/ 5   2/110/ 8
BUOY 41010       NOT AVBL
ST AUGUSTINE FL  1400   65 66   30/ 15/ 17 1023.4S


$$



USA.gov is the U.S. government's official web portal to all federal, state and local government web resources and services.